• En España
  • Lista de países
  • Para 7 días
  • Temperatura del agua
  • Mapa Satelital
  • El tiempo en el mapa
  • Informadores
  • user-avatar
    Iniciar sesión

    Tiempo cada hora Haradok

    Hoy, 17 Agosto, Viernes

    Tiempo Temperatura Precipitaciones Viento Presión Humedad
    00:00 +15°C° 0 mm 1 mps 752 mmHg 94%
    01:00 +15°C° 0 mm 1 mps 752 mmHg 95%
    02:00 +14°C° 0 mm 1 mps 753 mmHg 95%
    03:00 +14°C° 0 mm 1 mps 753 mmHg 96%
    04:00 +14°C° 0 mm 1 mps 753 mmHg 96%
    05:00 +14°C° 0 mm 1 mps 753 mmHg 96%
    06:00 +15°C° 0 mm 2 mps 753 mmHg 91%
    07:00 +17°C° 0 mm 2 mps 753 mmHg 85%
    08:00 +19°C° 0 mm 2 mps 753 mmHg 77%
    09:00 +20°C° 0 mm 2 mps 753 mmHg 72%
    10:00 +23°C° 0 mm 2 mps 753 mmHg 67%
    11:00 +24°C° 0 mm 2 mps 754 mmHg 61%
    12:00 +24°C° 0 mm 2 mps 753 mmHg 60%
    13:00 +25°C° 0 mm 2 mps 753 mmHg 58%
    14:00 +26°C° 0 mm 2 mps 753 mmHg 56%
    15:00 +25°C° 0 mm 2 mps 753 mmHg 58%
    16:00 +25°C° 0 mm 2 mps 752 mmHg 60%
    17:00 +25°C° 0 mm 2 mps 752 mmHg 63%
    18:00 +23°C° 0 mm 2 mps 752 mmHg 71%
    19:00 +20°C° 0 mm 2 mps 752 mmHg 79%
    20:00 +18°C° 0 mm 2 mps 752 mmHg 87%
    21:00 +18°C° 0 mm 2 mps 752 mmHg 89%
    22:00 +17°C° 0 mm 2 mps 752 mmHg 92%
    23:00 +17°C° 0 mm 2 mps 752 mmHg 94%

    Mañana, 18 Agosto, Sábado

    Tiempo Temperatura Precipitaciones Viento Presión Humedad
    00:00 +16°C° 0 mm 2 mps 752 mmHg 94%
    01:00 +16°C° 0 mm 2 mps 752 mmHg 94%
    02:00 +16°C° 0 mm 2 mps 752 mmHg 94%
    03:00 +15°C° 0 mm 2 mps 752 mmHg 94%
    04:00 +15°C° 0 mm 2 mps 752 mmHg 95%
    05:00 +15°C° 0 mm 2 mps 752 mmHg 95%
    06:00 +16°C° 0 mm 2 mps 752 mmHg 89%
    07:00 +18°C° 0 mm 2 mps 752 mmHg 83%
    08:00 +20°C° 0 mm 3 mps 752 mmHg 77%
    09:00 +21°C° 0 mm 3 mps 752 mmHg 72%
    10:00 +24°C° 0 mm 3 mps 752 mmHg 67%
    11:00 +26°C° 0 mm 3 mps 752 mmHg 62%
    12:00 +26°C° 0,3 mm 3 mps 752 mmHg 62%
    13:00 +26°C° 0,3 mm 3 mps 752 mmHg 62%
    14:00 +26°C° 0,3 mm 3 mps 752 mmHg 62%
    15:00 +26°C° 0,5 mm 3 mps 752 mmHg 66%
    16:00 +25°C° 0,5 mm 2 mps 751 mmHg 71%
    17:00 +25°C° 0,5 mm 2 mps 751 mmHg 75%
    18:00 +23°C° 0,2 mm 2 mps 751 mmHg 80%
    19:00 +21°C° 0,2 mm 2 mps 751 mmHg 85%
    20:00 +19°C° 0,2 mm 2 mps 751 mmHg 90%
    21:00 +19°C° 0,1 mm 2 mps 751 mmHg 91%
    22:00 +19°C° 0,1 mm 2 mps 751 mmHg 92%
    23:00 +18°C° 0,1 mm 2 mps 751 mmHg 94%

    Pasado mañana, 19 Agosto, Domingo

    Tiempo Temperatura Precipitaciones Viento Presión Humedad
    00:00 +18°C° 0,3 mm 2 mps 751 mmHg 94%
    01:00 +18°C° 0,3 mm 2 mps 751 mmHg 94%
    02:00 +18°C° 0,3 mm 2 mps 751 mmHg 94%
    03:00 +17°C° 0,3 mm 2 mps 751 mmHg 95%
    04:00 +17°C° 0,3 mm 2 mps 751 mmHg 95%
    05:00 +17°C° 0,3 mm 2 mps 750 mmHg 96%
    06:00 +18°C° 0 mm 2 mps 750 mmHg 93%
    07:00 +19°C° 0 mm 2 mps 750 mmHg 91%
    08:00 +20°C° 0 mm 2 mps 750 mmHg 88%
    09:00 +21°C° 0,2 mm 2 mps 750 mmHg 83%
    10:00 +24°C° 0,2 mm 2 mps 750 mmHg 77%
    11:00 +25°C° 0,2 mm 2 mps 750 mmHg 71%
    12:00 +26°C° 0,6 mm 3 mps 750 mmHg 71%
    13:00 +26°C° 0,6 mm 3 mps 750 mmHg 71%
    14:00 +26°C° 0,6 mm 3 mps 749 mmHg 70%
    15:00 +26°C° 0,5 mm 3 mps 749 mmHg 71%
    16:00 +25°C° 0,5 mm 3 mps 749 mmHg 73%
    17:00 +25°C° 0,5 mm 3 mps 749 mmHg 74%
    18:00 +23°C° 0 mm 2 mps 749 mmHg 76%
    19:00 +20°C° 0 mm 2 mps 749 mmHg 79%
    20:00 +18°C° 0 mm 2 mps 749 mmHg 81%
    21:00 +17°C° 0 mm 2 mps 749 mmHg 82%
    22:00 +17°C° 0 mm 2 mps 749 mmHg 83%
    23:00 +16°C° 0 mm 2 mps 749 mmHg 83%

    20 Agosto, Lunes

    Tiempo Temperatura Precipitaciones Viento Presión Humedad
    00:00 +16°C° 0 mm 2 mps 749 mmHg 87%
    01:00 +16°C° 0 mm 2 mps 749 mmHg 90%
    02:00 +15°C° 0 mm 2 mps 749 mmHg 93%
    03:00 +15°C° 0 mm 2 mps 749 mmHg 95%
    04:00 +16°C° 0 mm 1 mps 749 mmHg 96%
    05:00 +16°C° 0 mm 1 mps 749 mmHg 97%
    06:00 +17°C° 0 mm 2 mps 749 mmHg 92%
    07:00 +18°C° 0 mm 2 mps 750 mmHg 87%
    08:00 +20°C° 0 mm 2 mps 750 mmHg 82%
    09:00 +21°C° 0 mm 2 mps 750 mmHg 76%
    10:00 +22°C° 0 mm 3 mps 750 mmHg 70%
    11:00 +24°C° 0 mm 3 mps 749 mmHg 63%
    12:00 +25°C° 0 mm 3 mps 749 mmHg 61%
    13:00 +25°C° 0 mm 3 mps 749 mmHg 59%
    14:00 +26°C° 0 mm 3 mps 749 mmHg 57%
    15:00 +26°C° 0,1 mm 3 mps 749 mmHg 60%
    16:00 +25°C° 0,1 mm 3 mps 749 mmHg 62%
    17:00 +25°C° 0,1 mm 3 mps 748 mmHg 65%
    18:00 +23°C° 0,2 mm 2 mps 749 mmHg 72%
    19:00 +21°C° 0,2 mm 2 mps 749 mmHg 79%
    20:00 +19°C° 0,2 mm 2 mps 749 mmHg 86%
    21:00 +18°C° 0,3 mm 2 mps 749 mmHg 89%
    22:00 +18°C° 0,3 mm 2 mps 748 mmHg 91%
    23:00 +17°C° 0,3 mm 2 mps 748 mmHg 94%

    21 Agosto, Martes

    Tiempo Temperatura Precipitaciones Viento Presión Humedad
    00:00 +17°C° 0 mm 2 mps 748 mmHg 95%
    01:00 +17°C° 0 mm 2 mps 748 mmHg 95%
    02:00 +16°C° 0 mm 2 mps 748 mmHg 96%
    03:00 +16°C° 0 mm 2 mps 748 mmHg 96%
    04:00 +16°C° 0 mm 2 mps 748 mmHg 96%
    05:00 +16°C° 0 mm 2 mps 748 mmHg 96%
    06:00 +17°C° 0 mm 2 mps 748 mmHg 93%
    07:00 +19°C° 0 mm 2 mps 748 mmHg 89%
    08:00 +20°C° 0 mm 2 mps 748 mmHg 85%
    09:00 +21°C° 0,6 mm 3 mps 748 mmHg 82%
    10:00 +22°C° 0,6 mm 3 mps 748 mmHg 78%
    11:00 +24°C° 0,6 mm 3 mps 748 mmHg 74%
    12:00 +25°C° 1,2 mm 3 mps 747 mmHg 73%
    13:00 +25°C° 1,2 mm 4 mps 747 mmHg 73%
    14:00 +25°C° 1,2 mm 4 mps 747 mmHg 72%
    15:00 +24°C° 0,8 mm 3 mps 747 mmHg 76%
    16:00 +22°C° 0,8 mm 3 mps 747 mmHg 80%
    17:00 +23°C° 0,8 mm 2 mps 747 mmHg 85%
    18:00 +21°C° 0,2 mm 2 mps 746 mmHg 87%
    19:00 +20°C° 0,2 mm 2 mps 746 mmHg 90%
    20:00 +19°C° 0,2 mm 2 mps 746 mmHg 92%
    21:00 +18°C° 0,1 mm 2 mps 746 mmHg 93%
    22:00 +18°C° 0,1 mm 2 mps 746 mmHg 94%
    23:00 +18°C° 0,1 mm 2 mps 746 mmHg 95%

    22 Agosto, Miércoles

    Tiempo Temperatura Precipitaciones Viento Presión Humedad
    00:00 +17°C° 0 mm 2 mps 746 mmHg 96%
    01:00 +17°C° 0 mm 2 mps 746 mmHg 97%
    02:00 +17°C° 0 mm 2 mps 746 mmHg 97%
    03:00 +16°C° 0 mm 2 mps 746 mmHg 97%
    04:00 +16°C° 0 mm 2 mps 746 mmHg 98%
    05:00 +16°C° 0 mm 2 mps 747 mmHg 98%
    06:00 +16°C° 0 mm 2 mps 747 mmHg 96%
    07:00 +17°C° 0 mm 3 mps 747 mmHg 94%
    08:00 +17°C° 0 mm 3 mps 747 mmHg 93%
    09:00 +18°C° 0 mm 3 mps 748 mmHg 89%
    10:00 +18°C° 0 mm 3 mps 748 mmHg 86%
    11:00 +19°C° 0 mm 3 mps 748 mmHg 83%
    12:00 +20°C° 0 mm 3 mps 748 mmHg 77%
    13:00 +21°C° 0 mm 3 mps 748 mmHg 72%
    14:00 +22°C° 0 mm 3 mps 748 mmHg 66%
    15:00 +22°C° 0 mm 3 mps 748 mmHg 65%
    16:00 +22°C° 0 mm 3 mps 748 mmHg 64%
    17:00 +23°C° 0 mm 2 mps 748 mmHg 63%
    18:00 +21°C° 0 mm 2 mps 748 mmHg 69%
    19:00 +19°C° 0 mm 2 mps 748 mmHg 76%
    20:00 +17°C° 0 mm 2 mps 748 mmHg 82%
    21:00 +17°C° 0 mm 2 mps 747 mmHg 83%
    22:00 +17°C° 0 mm 2 mps 747 mmHg 84%
    23:00 +16°C° 0 mm 3 mps 747 mmHg 85%
    Mostrar más